TimeCST,TemperatureF,Dew PointF,Humidity,Sea Level PressureIn,VisibilityMPH,Wind Direction,Wind SpeedMPH,Gust SpeedMPH,PrecipitationIn,Events,Conditions,WindDirDegrees,DateUTC
12:13 AM,-0.4,-7.6,72,30.31,10.0,NE,3.5,-,N/A,,Overcast,40,2013-12-14 06:13:00
12:33 AM,-0.4,-7.6,72,30.30,10.0,NNE,3.5,-,N/A,,Overcast,30,2013-12-14 06:33:00
12:53 AM,-0.4,-7.6,72,30.30,10.0,NE,3.5,-,N/A,,Overcast,50,2013-12-14 06:53:00
1:13 AM,-0.4,-7.6,72,30.29,7.0,NNE,3.5,-,N/A,,Overcast,30,2013-12-14 07:13:00
1:33 AM,-0.4,-7.6,72,30.29,3.0,NNE,3.5,-,N/A,,Overcast,20,2013-12-14 07:33:00
1:53 AM,-0.4,-7.6,72,30.28,5.0,NNE,3.5,-,N/A,,Overcast,20,2013-12-14 07:53:00
2:13 AM,-0.4,-5.8,78,30.28,7.0,North,3.5,-,N/A,,Scattered Clouds,10,2013-12-14 08:13:00
2:33 AM,-0.4,-7.6,72,30.28,10.0,North,4.6,-,N/A,,Scattered Clouds,10,2013-12-14 08:33:00
2:53 AM,-0.4,-7.6,72,30.28,10.0,North,4.6,-,N/A,,Mostly Cloudy,360,2013-12-14 08:53:00
3:13 AM,-0.4,-7.6,72,30.27,10.0,NNE,4.6,-,N/A,,Overcast,20,2013-12-14 09:13:00
3:33 AM,-0.4,-5.8,78,30.26,10.0,NNE,3.5,-,N/A,,Overcast,20,2013-12-14 09:33:00
3:51 AM,-0.4,-5.8,78,30.26,5.0,North,4.6,-,N/A,,Overcast,10,2013-12-14 09:51:00
4:13 AM,-0.4,-5.8,78,30.24,10.0,NE,3.5,-,N/A,,Overcast,50,2013-12-14 10:13:00
4:33 AM,-0.4,-5.8,78,30.25,10.0,NNE,4.6,-,N/A,,Overcast,20,2013-12-14 10:33:00
4:52 AM,-0.4,-5.8,78,30.25,5.0,North,4.6,-,N/A,,Overcast,10,2013-12-14 10:52:00
5:13 AM,-0.4,-5.8,78,30.25,5.0,North,3.5,-,N/A,,Scattered Clouds,360,2013-12-14 11:13:00
5:33 AM,-4.0,-7.6,85,30.25,10.0,North,3.5,-,N/A,,Clear,350,2013-12-14 11:33:00
5:53 AM,-4.0,-7.6,85,30.23,10.0,Calm,Calm,-,N/A,,Scattered Clouds,0,2013-12-14 11:53:00
6:13 AM,-4.0,-7.6,85,30.22,7.0,Calm,Calm,-,N/A,,Mostly Cloudy,0,2013-12-14 12:13:00
6:33 AM,-2.2,-7.6,78,30.22,10.0,NNE,3.5,-,N/A,,Overcast,30,2013-12-14 12:33:00
6:53 AM,-2.2,-5.8,85,30.22,10.0,NNE,3.5,-,N/A,,Overcast,20,2013-12-14 12:53:00
7:13 AM,-0.4,-5.8,78,30.22,1.5,Calm,Calm,-,N/A,,Overcast,0,2013-12-14 13:13:00
7:33 AM,-0.4,-5.8,78,30.21,10.0,Calm,Calm,-,N/A,,Overcast,0,2013-12-14 13:33:00
7:52 AM,-0.4,-5.8,78,30.20,2.5,Calm,Calm,-,N/A,,Overcast,0,2013-12-14 13:52:00
8:13 AM,-0.4,-5.8,78,30.20,1.8,Calm,Calm,-,N/A,,Overcast,0,2013-12-14 14:13:00
8:33 AM,-0.4,-5.8,78,30.20,2.5,North,3.5,-,N/A,,Overcast,360,2013-12-14 14:33:00
8:52 AM,-0.4,-4.0,85,30.20,2.0,Calm,Calm,-,N/A,,Overcast,0,2013-12-14 14:52:00
9:12 AM,1.4,-4.0,78,30.20,1.0,Calm,Calm,-,N/A,,Overcast,0,2013-12-14 15:12:00
9:33 AM,1.4,-4.0,78,30.19,1.2,Calm,Calm,-,N/A,,Overcast,0,2013-12-14 15:33:00
9:53 AM,1.4,-4.0,78,30.19,2.5,Calm,Calm,-,N/A,,Overcast,0,2013-12-14 15:53:00
10:13 AM,1.4,-4.0,78,30.17,2.0,Calm,Calm,-,N/A,,Overcast,0,2013-12-14 16:13:00
10:33 AM,1.4,-4.0,78,30.16,1.5,Calm,Calm,-,N/A,,Overcast,0,2013-12-14 16:33:00
10:53 AM,3.2,-4.0,72,30.15,2.0,Calm,Calm,-,N/A,,Overcast,0,2013-12-14 16:53:00
11:13 AM,3.2,-2.2,78,30.14,3.0,Calm,Calm,-,N/A,,Overcast,0,2013-12-14 17:13:00
11:33 AM,3.2,-0.4,85,30.13,2.5,Calm,Calm,-,N/A,,Overcast,0,2013-12-14 17:33:00
11:53 AM,5.0,-0.4,78,30.11,2.0,Calm,Calm,-,N/A,,Overcast,0,2013-12-14 17:53:00
12:13 PM,5.0,-0.4,78,30.10,5.0,SW,3.5,-,N/A,,Overcast,220,2013-12-14 18:13:00
12:33 PM,5.0,1.4,85,30.08,4.0,SSW,3.5,-,N/A,,Overcast,210,2013-12-14 18:33:00
12:53 PM,6.8,1.4,79,30.07,4.0,Calm,Calm,-,N/A,,Overcast,0,2013-12-14 18:53:00
1:13 PM,8.6,1.4,73,30.06,5.0,SW,3.5,-,N/A,,Overcast,220,2013-12-14 19:13:00
1:33 PM,8.6,1.4,73,30.05,5.0,WSW,5.8,-,N/A,,Overcast,250,2013-12-14 19:33:00
1:53 PM,8.6,3.2,79,30.05,4.0,WSW,3.5,-,N/A,,Overcast,250,2013-12-14 19:53:00
2:12 PM,8.6,3.2,79,30.05,4.0,West,4.6,-,N/A,,Overcast,260,2013-12-14 20:12:00
2:33 PM,8.6,1.4,73,30.04,4.0,WNW,5.8,-,N/A,,Overcast,290,2013-12-14 20:33:00
2:53 PM,8.6,1.4,73,30.03,3.0,West,5.8,-,N/A,,Overcast,260,2013-12-14 20:53:00
3:12 PM,6.8,1.4,79,30.03,3.0,WSW,3.5,-,N/A,,Overcast,250,2013-12-14 21:12:00
3:33 PM,6.8,1.4,79,30.03,5.0,West,3.5,-,N/A,,Overcast,270,2013-12-14 21:33:00
3:53 PM,8.6,1.4,73,30.03,7.0,West,3.5,-,N/A,,Overcast,270,2013-12-14 21:53:00
4:13 PM,8.6,1.4,73,30.02,5.0,WSW,3.5,-,N/A,,Overcast,250,2013-12-14 22:13:00
4:33 PM,8.6,1.4,73,30.03,4.0,WSW,4.6,-,N/A,,Overcast,250,2013-12-14 22:33:00
4:53 PM,6.8,1.4,79,30.02,4.0,West,5.8,-,N/A,,Overcast,260,2013-12-14 22:53:00
5:13 PM,6.8,1.4,79,30.02,4.0,West,3.5,-,N/A,,Overcast,280,2013-12-14 23:13:00
5:33 PM,6.8,1.4,79,30.03,4.0,West,5.8,-,N/A,,Overcast,280,2013-12-14 23:33:00
5:53 PM,6.8,1.4,79,30.03,7.0,WNW,5.8,-,N/A,,Overcast,290,2013-12-14 23:53:00
6:12 PM,6.8,1.4,79,30.03,10.0,NW,9.2,-,N/A,,Overcast,310,2013-12-15 00:12:00
6:33 PM,6.8,-0.4,72,30.02,10.0,NW,6.9,-,N/A,,Overcast,310,2013-12-15 00:33:00
6:53 PM,5.0,-0.4,78,30.02,10.0,NW,5.8,-,N/A,,Overcast,310,2013-12-15 00:53:00
7:12 PM,5.0,-0.4,78,30.02,7.0,NW,8.1,-,N/A,,Overcast,310,2013-12-15 01:12:00
7:33 PM,5.0,-0.4,78,30.01,7.0,NW,6.9,-,N/A,,Overcast,310,2013-12-15 01:33:00
7:53 PM,5.0,1.4,85,30.02,10.0,NW,8.1,-,N/A,,Overcast,310,2013-12-15 01:53:00
8:12 PM,5.0,-0.4,78,30.02,7.0,NW,8.1,-,N/A,,Overcast,310,2013-12-15 02:12:00
8:33 PM,3.2,-2.2,78,30.02,10.0,NW,15.0,-,N/A,,Overcast,310,2013-12-15 02:33:00
8:53 PM,3.2,-4.0,72,30.02,10.0,NW,11.5,-,N/A,,Scattered Clouds,320,2013-12-15 02:53:00
9:13 PM,1.4,-4.0,78,30.02,10.0,NW,8.1,-,N/A,,Clear,320,2013-12-15 03:13:00
9:33 PM,1.4,-4.0,78,30.02,10.0,NW,11.5,16.1,N/A,,Clear,320,2013-12-15 03:33:00
9:53 PM,-0.4,-5.8,78,30.03,10.0,NW,6.9,-,N/A,,Clear,310,2013-12-15 03:53:00
10:12 PM,-0.4,-5.8,78,30.04,10.0,NW,9.2,-,N/A,,Clear,310,2013-12-15 04:12:00
10:33 PM,-0.4,-5.8,78,30.03,10.0,NW,10.4,-,N/A,,Scattered Clouds,320,2013-12-15 04:33:00
10:53 PM,-2.2,-7.6,78,30.04,10.0,NW,5.8,-,N/A,,Clear,310,2013-12-15 04:53:00
11:12 PM,-2.2,-7.6,78,30.04,10.0,WNW,6.9,-,N/A,,Clear,300,2013-12-15 05:12:00
11:33 PM,-4.0,-7.6,85,30.04,10.0,WNW,5.8,-,N/A,,Mostly Cloudy,300,2013-12-15 05:33:00
11:53 PM,-4.0,-7.6,85,30.04,10.0,NW,6.9,-,N/A,,Scattered Clouds,310,2013-12-15 05:53:00